Livermore, CA

6:52 PM PST on November 22, 2017 (GMT -0800)
Livermore Municipal

Weather History for KLVK - October, 2012

Change the Weather History Date:

Sunday, October 7, 2012

  Actual Average Record
Temperature  
Mean Temperature 63 °F 65 °F  
Max Temperature 76 °F 79 °F 101 °F (1980)
Min Temperature 49 °F 52 °F 39 °F (1969)
Degree Days  
Heating Degree Days 2 2  
Month to date heating degree days 4 11  
Since 1 July heating degree days 9 35  
Cooling Degree Days 0 2  
Month to date cooling degree days 47 18  
Year to date cooling degree days 924 807  
Growing Degree Days 13 (Base 50)    
Moisture  
Dew Point 49 °F    
Average Humidity 61    
Maximum Humidity 89    
Minimum Humidity 33    
Precipitation  
Precipitation 0.00 in 0.02 in 1.02 in (1973)
Month to date precipitation 0.00 0.12  
Year to date precipitation 7.06 10.25  
Since 1 July precipitation 0.00  
Sea Level Pressure  
Sea Level Pressure 29.97 in    
Wind  
Wind Speed 5 mph (West)    
Max Wind Speed 16 mph    
Max Gust Speed 20 mph    
Visibility 10 miles    
Events      
T = Trace of Precipitation, MM = Missing Value Source: NWS Daily Summary

Daily Weather History Graph

Daily Weather History Graph

Search for Another Location

Airport or City:

Trip Planner

Search our weather history database for the weather conditions in past years. The results will help you decide how hot, cold, wet, or windy it might be!

Date:

Astronomy

Oct. 07, 2012 Rise Set
Actual Time 7:08 AM PDT 6:40 PM PDT
Civil Twilight 6:42 AM PDT 7:06 PM PDT
Nautical Twilight 6:12 AM PDT 7:37 PM PDT
Astronomical Twilight 5:41 AM PDT 8:07 PM PDT
Moon No Moon Rise 1:45 PM PDT (10/7)
Length of Visible Light 12h 24m
Length of Day
11h 31m
Waning Gibbous, 55% of the Moon is Illuminated
Oct 7
Waning Gibbous
Oct 8
Last Quarter
Oct 15
New
Oct 21
First Quarter
Oct 29
Full

Hourly Weather History & Observations

Time (PDT) Temp. Dew Point Humidity Pressure Visibility Wind Dir Wind Speed Gust Speed Precip Events Conditions
12:53 AM 55.9 °F 48.0 °F 75% 29.98 in 10.0 mi Calm Calm - N/A   Clear
1:53 AM 55.0 °F 48.0 °F 77% 29.98 in 10.0 mi Calm Calm - N/A   Clear
2:53 AM 54.0 °F 48.0 °F 80% 29.99 in 10.0 mi Calm Calm - N/A   Clear
3:53 AM 53.1 °F 48.0 °F 83% 29.98 in 10.0 mi Calm Calm - N/A   Clear
4:53 AM 52.0 °F 46.9 °F 83% 29.98 in 10.0 mi Calm Calm - N/A   Clear
5:53 AM 52.0 °F 46.9 °F 83% 29.98 in 10.0 mi Calm Calm - N/A   Clear
6:53 AM 51.1 °F 48.0 °F 89% 29.99 in 10.0 mi Calm Calm - N/A   Clear
7:53 AM 52.0 °F 46.9 °F 83% 30.01 in 10.0 mi Calm Calm - N/A   Clear
8:53 AM 55.9 °F 50.0 °F 80% 30.02 in 10.0 mi Calm Calm - N/A   Clear
9:53 AM 61.0 °F 51.1 °F 70% 30.01 in 10.0 mi West 4.6 mph - N/A   Clear
10:53 AM 64.9 °F 51.1 °F 61% 29.99 in 10.0 mi Calm Calm - N/A   Clear
11:53 AM 70.0 °F 51.1 °F 51% 29.97 in 10.0 mi WSW 8.1 mph - N/A   Clear
12:53 PM 72.0 °F 51.1 °F 48% 29.96 in 10.0 mi West 5.8 mph - N/A   Clear
1:53 PM 75.0 °F 48.0 °F 38% 29.94 in 10.0 mi WNW 12.7 mph 16.1 mph N/A   Clear
2:53 PM 73.9 °F 44.1 °F 34% 29.93 in 10.0 mi WSW 9.2 mph - N/A   Clear
3:53 PM 75.0 °F 45.0 °F 34% 29.92 in 10.0 mi West 13.8 mph - N/A   Clear
4:53 PM 72.0 °F 48.9 °F 44% 29.92 in 10.0 mi West 15.0 mph - N/A   Clear
5:53 PM 66.9 °F 48.9 °F 52% 29.93 in 10.0 mi West 12.7 mph - N/A   Clear
6:53 PM 63.0 °F 50.0 °F 63% 29.95 in 10.0 mi West 13.8 mph - N/A   Clear
7:53 PM 61.0 °F 50.0 °F 67% 29.96 in 10.0 mi WNW 10.4 mph - N/A   Clear
8:53 PM 59.0 °F 48.9 °F 69% 29.98 in 10.0 mi Calm Calm - N/A   Clear
9:53 PM 57.9 °F 48.9 °F 72% 29.99 in 10.0 mi Calm Calm - N/A   Clear
10:53 PM 55.9 °F 48.9 °F 77% 29.99 in 10.0 mi West 4.6 mph - N/A   Clear
11:53 PM 57.0 °F 50.0 °F 77% 30.00 in 10.0 mi WSW 6.9 mph - N/A   Clear